Regional Weather Roundup
Issued by NWS Northern Indiana

Home | Current Version | Previous Version | Graphics & Text | Print | Product List | Glossary On
Versions: 1 2 3 4 5 6 7 8 9 10 11 12 13 14 15 16 17 18 19 20 21 22 23 24 25 26 27 28 29 30 31 32 33 34 35 36 37 38 39 40 41 42 43 44 45 46 47 48 49 50
000
ASUS43 KIWX 032100
RWRIWX

KIWX WEATHER ROUNDUP
NATIONAL WEATHER SERVICE NORTHERN INDIANA
500 PM EDT THU SEP 03 2015

NOTE: "FAIR" INDICATES FEW OR NO CLOUDS BELOW 12,000 FEET WITH NO
SIGNIFICANT WEATHER AND/OR OBSTRUCTIONS TO VISIBILITY.

* THESE STATIONS ARE NOT UNDER NWS QUALITY CONTROL. THEY ALSO MAY NOT
  REPORT WEATHER SUCH AS PRECIPITATION OR FOG.

INZ001>027-032200-
NORTHERN INDIANA

CITY           SKY/WX    TMP DP  RH WIND       PRES   REMARKS
GARY*          PTSUNNY   91  63  38 W14       29.90F
SOUTH BEND     SUNNY     89  68  49 W12       29.91F
ELKHART*       PTSUNNY   86  66  51 W12G17    29.91F
GOSHEN         MOSUNNY   89  68  49 W16       29.91F
ANGOLA*        SUNNY     90  70  51 W10       29.92S HX  95
FORT WAYNE     MOSUNNY   89  69  51 W13       29.92F
PERU/GRISSOM   SUNNY     91  65  41 W13       29.92F

$$
INZ028>050-032200-
CENTRAL INDIANA

CITY           SKY/WX    TMP DP  RH WIND       PRES   REMARKS
LAFAYETTE      SUNNY     90  63  40 W13       29.92F
KOKOMO*        MOSUNNY   91  66  43 W13       29.94S
MUNCIE*        MOSUNNY   86  66  51 NW9       29.95F
INDIANAPOLIS   PTSUNNY   89  65  44 SW12      29.95F

$$
MIZ043>046-050>051-056>058-064>065-071>073-077>080-032200-
SOUTHWEST LOWER MICHIGAN

CITY           SKY/WX    TMP DP  RH WIND       PRES   REMARKS
BATTLE CREEK   PTSUNNY   88  69  53 W17       29.89F
BENTON HARBOR  SUNNY     87  69  54 SW14      29.88F
COLDWATER*     MOSUNNY   88  65  46 SW10G18   29.90F
HILLSDALE*     MOSUNNY   88  66  48 SW13      29.91F
HOLLAND        SUNNY     79  70  74 W9        29.91S
GRAND RAPIDS   PTSUNNY   82  72  71 W14       29.89S
KALAMAZOO      LGT RAIN  87  67  51 W14G23    29.90S
STURGIS*       MOSUNNY   86  70  58 W12       29.91F
THREE RIVERS*  FAIR      88  69  52 W10       29.91S

$$
OHZ001>008-015>018-024>025-032200-
NORTHWEST OHIO

CITY           SKY/WX    TMP DP  RH WIND       PRES   REMARKS
DEFIANCE       MOSUNNY   89  66  46 SW8       29.90F
FINDLAY        MOSUNNY   89  66  46 W14       29.91F
TOLEDO EXPRESS MOSUNNY   89  65  44 W16       29.89F
TOLEDO METCALF MOSUNNY   90  64  42 SW14      29.90F
LIMA           MOSUNNY   88  67  49 W13       29.93F

$$
AND FOR LAKE MICHIGAN COASTAL AND OPEN LAKE BUOY OBSERVATIONS

STATION/POSITION TEMP    WIND        PRES    VSBY  WAVE
                 AIR SEA DIR/SP/G                  HT/PER
                 (F)     (DEG/KT/KT) (MB)    (MI)  (FT/S)
CALUMET HARBOR    89     220/  6/ 13   N/A
MICHIGAN CITY     81     210/  5/  5   N/A
SAINT JOSEPH      81     180/  9/ 11 1013.5F
SOUTH LAKE BUOY   74 74  350/ 10/ 12 1011.5F         1
4 MI NW BRIDGMAN  77 74  260/  6/  6   N/A           1/ 3
MICHIGAN CITY     83 76  260/  4/  4   N/A           1

$$
&&



USA.gov is the U.S. government's official web portal to all federal, state and local government web resources and services.